Date,TemperatureHighF,TemperatureAvgF,TemperatureLowF,DewpointHighF,DewpointAvgF,DewpointLowF,HumidityHigh,HumidityAvg,HumidityLow,PressureMaxIn,PressureMinIn,WindSpeedMaxMPH,WindSpeedAvgMPH,GustSpeedMaxMPH,PrecipitationSumIn
2013-1-1,78,66,55,60,58,53,100,77,51,30.21,30.03,7,1,15,0.00
2013-1-2,80,70,62,69,65,59,97,85,61,30.06,29.98,3,0,12,0.00
2013-1-3,74,67,61,68,65,60,100,95,78,30.15,30.01,5,0,15,0.45
2013-1-4,63,60,58,61,59,57,100,97,90,30.27,30.14,5,0,14,0.41
2013-1-5,75,65,58,63,59,54,100,80,61,30.29,30.16,5,0,13,0.01
2013-1-6,81,68,62,70,65,60,100,89,66,30.19,30.06,5,0,13,0.04
2013-1-7,67,65,62,66,62,56,97,90,74,30.20,30.09,5,1,13,0.07
2013-1-8,83,71,62,69,65,61,100,82,54,30.21,30.10,4,1,10,0.01
2013-1-9,86,76,69,72,68,64,100,78,51,30.27,30.15,6,1,13,0.00
2013-1-10,84,75,68,70,67,63,100,78,51,30.27,30.18,7,2,15,0.00
2013-1-11,85,74,67,69,65,61,96,75,46,30.26,30.11,5,1,14,0.00
2013-1-12,84,73,66,68,66,64,97,80,52,30.17,30.06,6,1,13,0.00
2013-1-13,82,73,67,68,65,63,94,78,53,30.15,30.04,2,0,10,0.00
2013-1-14,82,72,64,67,63,57,97,75,44,30.17,30.10,3,0,9,0.00
2013-1-15,82,71,61,68,63,60,100,78,50,30.13,30.04,5,0,10,0.00
2013-1-16,84,72,65,68,64,59,100,79,44,30.09,29.99,3,0,9,0.00
2013-1-17,72,64,56,71,60,46,100,86,63,30.14,29.98,11,3,22,0.05
2013-1-18,64,56,44,56,47,38,82,74,63,30.31,30.14,7,3,21,0.01
2013-1-19,76,66,57,60,56,50,85,72,56,30.27,30.11,6,1,14,0.00
2013-1-20,78,68,62,63,60,56,93,77,57,30.17,30.03,2,0,10,0.00
2013-1-21,75,67,61,63,59,54,90,75,61,30.09,30.01,5,1,15,0.00
2013-1-22,68,61,54,54,43,34,75,54,30,30.28,30.07,6,1,17,0.00
2013-1-23,70,59,51,46,41,36,81,54,31,30.37,30.27,3,0,12,0.00
2013-1-24,72,58,47,55,49,45,97,75,40,30.34,30.25,5,1,14,0.00
2013-1-25,77,61,50,60,52,48,100,76,38,30.32,30.18,2,0,8,0.00
2013-1-26,74,62,51,60,55,50,100,81,52,30.28,30.17,4,0,13,0.00
2013-1-27,80,66,53,62,56,52,100,75,40,30.30,30.20,5,0,9,0.00
2013-1-28,82,71,64,66,62,59,97,76,46,30.31,30.19,5,1,12,0.00
2013-1-29,85,72,62,69,65,61,100,80,52,30.23,30.08,5,1,12,0.00
2013-1-30,81,73,67,68,66,64,94,79,59,30.09,29.91,10,3,30,0.00
2013-1-31,72,58,50,68,42,35,86,57,40,30.23,29.91,6,3,18,0.15